Location: Punta Maimoi
(39.6167°N, 8.4667°E)
Time: 22:33:09
(UTC+00:00)

Daily predictions for brighter satellites

Satellite Brightness Start Highest point End
(mag) Time Altitude Azimuth Time Altitude Azimuth Time Altitude Azimuth
Meteor 1-26 Rocket 4.2 18:58:25 10° S 19:03:58 63° E 19:09:22 10° NNE
Cosmos 2315 Rocket 4.3 18:58:05 10° SSE 19:04:12 51° E 19:10:20 10° NNE
Cosmos 1328 Rocket 3.9 19:03:09 10° SSE 19:07:21 45° E 19:11:33 10° NNE
Meteor 1-20 Rocket 4.2 19:03:51 10° N 19:09:25 89° E 19:14:53 10° S
GPS 2-04 Rocket1 3.4 19:05:47 10° W 19:09:44 43° S 19:13:40 10° ESE
Resurs 01 Rocket 3.1 19:07:58 10° ESE 19:11:22 22° ENE 19:14:47 10° NNE
Cosmos 1602 3.8 19:07:36 10° N 19:11:28 59° E 19:15:18 10° SSE
USA 306 3.4 19:12:31 10° NW 19:16:42 52° NE 19:20:47 10° ESE
Tianhe-1 1.0 19:17:27 10° WSW 19:20:33 78° SSE 19:23:43 10° ENE
Meteor 2-17 Rocket 4.5 19:14:27 10° N 19:20:37 74° E 19:26:43 10° SSE
Cosmos 1470 Rocket 4.3 19:17:30 10° N 19:21:40 36° ENE 19:25:46 10° SE
Cosmos 1812 3.4 19:18:37 10° SSE 19:22:09 36° E 19:25:42 10° NNE
Cosmos 1833 Rocket 2.8 19:19:52 10° NNW 19:25:28 61° ENE 19:30:52 11° SE
CREW DRAGON DEMO-1 DEB 2.3 19:28:22 10° NW 19:30:59 86° NE 19:32:46 18° SE
CZ-2C R/B 2.6 19:29:34 10° SSW 19:32:33 20° SSE 19:34:15 15° SE
SJ 16-02 1.3 19:28:24 10° S 19:32:47 68° ESE 19:37:12 10° NNE
Sich 1 4.5 19:30:46 10° NNW 19:34:51 39° W 19:38:56 10° SSW
Cosmos 1933 Rocket 4.4 19:31:21 10° NNE 19:35:17 32° ENE 19:38:12 15° SE
Meteor 1-14 Rocket 4.3 19:29:45 10° N 19:35:31 66° E 19:41:06 10° SSE
USA 267 3.5 19:30:30 10° SE 19:36:56 69° SW 19:43:28 10° NW
Cosmos 1666 Rocket 3.9 19:32:53 10° NNW 19:37:12 66° W 19:41:29 10° S
Cosmos 1151 Rocket 3.6 19:33:56 10° SSW 19:38:15 61° W 19:42:36 10° N
CZ-2C R/B 4.4 19:41:18 10° NNE 19:45:27 34° E 19:48:50 15° SSE
USA 307 2.9 19:41:40 10° NW 19:45:56 84° NE 19:48:52 20° SE
Cosmos 1500 3.0 19:42:33 10° N 19:46:18 81° E 19:49:30 14° S
Cosmos 1782 4.1 19:44:05 10° SSW 19:47:52 41° W 19:51:39 10° N
Resurs 1-3 3.6 19:43:51 10° SSE 19:48:14 86° WSW 19:52:38 10° NNW
Landsat 7 4.3 19:45:03 17° SE 19:48:23 43° ENE 19:52:53 10° N
IRS-1A Rocket 4.5 19:43:37 10° S 19:49:24 79° WSW 19:55:20 10° NNW
OBJECT-B 2.9 19:52:32 10° SSW 19:55:16 25° W 19:58:02 10° NW
ARIANE 5 R/B 4.1 19:55:47 17° E 19:57:30 21° ENE 20:00:48 10° NNE
Meteor 1-5 Rocket 4.0 19:52:21 10° N 19:57:40 72° E 20:01:46 17° SSE
SPOT 1/Viking Rocket 4.2 19:56:32 20° SE 19:59:35 40° ENE 20:04:23 10° N
USA 245 4.4 20:00:07 13° ENE 20:00:07 13° ENE 20:01:04 10° NNE
USA 308 2.9 19:55:34 10° NW 19:59:51 75° SW 20:02:16 25° SE
Cosmos 1937 Rocket 4.4 19:58:04 21° SE 19:59:55 26° E 20:04:12 10° NE
Cosmos 2297 4.1 19:56:07 10° S 20:01:25 42° ESE 20:06:43 10° NE
Cosmos 1538 Rocket 4.1 20:00:43 10° NNW 20:06:03 76° WSW 20:10:01 18° S
ISS -1.9 20:03:54 10° W 20:06:59 33° NNW 20:10:05 10° NE
OAO 3 Rocket 3.4 20:07:36 10° WSW 20:12:05 48° S 20:14:01 29° ESE
Meteor 1-11 Rocket 4.0 20:09:45 10° N 20:15:35 55° ENE 20:18:41 27° SE
SPOT 3 Rocket 3.5 20:12:40 21° SSE 20:16:13 88° W 20:21:24 10° NNW
Cosmos 1943 Rocket 2.5 20:14:37 21° SSE 20:17:54 42° ESE 20:23:09 10° NE
Cosmos 1340 Rocket 4.2 20:14:50 10° NNE 20:18:08 23° ENE 20:18:40 23° E
Cosmos 2082 Rocket 2.1 20:12:55 10° NNW 20:18:35 84° ENE 20:21:45 27° SSE
Nadezhda 1 Rocket 4.1 20:14:54 20° SSE 20:19:06 55° E 20:25:09 10° NNE
Cosmos 1680 Rocket 4.0 20:14:41 10° N 20:19:49 46° ENE 20:22:04 29° ESE
Cosmos 1461 3.3 20:15:35 10° SSW 20:20:09 52° ESE 20:24:42 10° NE
Cosmos 2154 Rocket 4.3 20:14:19 10° N 20:20:25 49° ENE 20:23:27 28° SE
CZ-4C R/B 3.8 20:16:14 10° NW 20:23:30 48° WSW 20:30:15 15° S
Delta 2 Rocket 4.1 20:18:30 10° W 20:23:34 47° SSW 20:25:07 35° SE
Cosmos 2074 Rocket 4.0 20:18:02 10° N 20:24:21 81° E 20:28:25 24° SSE
Cosmos 2184 Rocket 3.9 20:20:31 10° N 20:26:43 81° E 20:30:30 25° SSE
Cosmos 44 3.7 20:26:28 10° NNW 20:31:47 57° NE 20:33:48 35° ESE
Iridium 4 Rocket 3.8 20:28:48 19° S 20:33:12 86° W 20:39:09 10° N
Cosmos 1271 Rocket 3.8 20:30:29 10° SSW 20:34:18 45° WNW 20:38:10 10° N
NOSS 3-4 (A) 4.0 20:27:40 10° NW 20:34:50 74° WSW 20:39:25 28° SSE
NOSS 3-4 (C) 4.0 20:27:46 10° NW 20:34:57 75° WSW 20:39:31 28° SSE
Cosmos 1544 3.9 20:32:04 10° N 20:35:19 35° ENE 20:35:19 35° ENE
Cosmos 967 Rocket 4.4 20:29:50 10° SSW 20:36:06 87° WNW 20:42:25 10° NNE
USA 305 4.1 20:32:56 10° WNW 20:36:44 32° SW 20:37:52 27° SSW
Cosmos 990 Rocket 4.3 20:37:12 10° SSW 20:42:24 69° WNW 20:47:39 10° NNE
Cosmos 2369 Rocket 2.8 20:42:46 35° ESE 20:43:05 35° ESE 20:48:10 10° NE
Cosmos 2228 Rocket 3.3 20:40:36 24° SSW 20:43:12 67° W 20:47:41 10° N
Cosmos 1536 2.7 20:39:54 10° N 20:43:55 70° E 20:44:24 61° SE
Cosmos 1869 Rocket 3.4 20:41:11 10° N 20:45:33 83° E 20:46:32 53° SSE
Resurs 01 Rocket 3.1 20:44:55 17° SSW 20:47:39 33° W 20:51:40 10° NNW
ATLAS 2AS CENTAUR R/B 2.7 20:40:52 10° NNW 20:48:10 81° NE 20:51:07 37° SE
Cosmos 1898 Rocket 3.6 20:43:46 13° SSW 20:48:35 76° WNW 20:53:56 10° NNE
Cosmos 1610 Rocket 4.4 20:42:38 10° N 20:48:47 80° E 20:51:24 37° SSE
Cosmos 1666 4.3 20:47:32 10° NNW 20:50:48 29° W 20:52:23 21° SW
Terra 2.3 20:55:27 41° E 20:56:04 43° ENE 21:00:34 10° N
Tianhe-1 1.9 20:54:07 10° W 20:56:44 50° NW 20:56:44 50° NW
Cosmos 923 Rocket 4.4 20:53:11 10° NNW 20:58:23 59° WSW 21:00:15 38° SSW
Cosmos 1707 Rocket 3.4 20:58:16 67° SE 20:58:40 73° E 21:03:05 10° NNE
Cosmos 2181 Rocket 4.4 20:58:37 38° ESE 20:59:36 40° E 21:05:15 10° NNE
CARTOSAT-1 3.5 20:59:00 63° S 20:59:40 83° W 21:03:59 10° NNW
Cosmos 1295 Rocket 4.4 20:54:31 10° N 21:00:54 86° E 21:03:19 41° S
SL-24 R/B - RUBIN 2 3.7 21:00:10 10° NW 21:05:25 78° WSW 21:06:09 63° S
Cosmos 1818 3.6 21:01:01 10° NNW 21:06:30 71° ENE 21:07:40 53° ESE
Cosmos 2084 Rocket 3.3 21:04:05 10° NNW 21:08:26 85° ENE 21:08:37 81° ESE
CZ-2C R/B 3.6 21:08:07 10° WSW 21:08:33 13° WSW 21:08:33 13° WSW
RESURS DK-1 4.3 21:12:44 10° N 21:15:49 20° NE 21:15:49 20° NE
Cosmos 2263 4.3 21:23:09 56° ESE 21:23:11 56° ESE 21:28:51 10° NNE
Cosmos 2341 Rocket 3.9 21:18:33 10° N 21:24:59 80° E 21:26:26 56° SSE
Cosmos 1743 3.2 21:21:44 10° NNW 21:25:04 58° NW 21:25:04 58° NW
Cosmos 1733 Rocket 3.2 21:24:57 10° N 21:28:47 68° NNE 21:28:47 68° NNE
Milstar 3 3.9 21:15:56 10° W 21:29:34 44° SSW 21:31:31 40° SSE
ERS-1 Rocket 3.2 21:29:16 54° SW 21:29:58 59° W 21:34:56 10° NNW
Cosmos 2218 Rocket 4.1 21:23:44 10° N 21:29:58 57° E 21:30:56 52° ESE
SL-24 DEB 4.4 21:29:49 58° WSW 21:30:09 60° W 21:34:43 10° NNW
ERBS 4.1 21:27:10 10° NW 21:29:01 31° NW 21:29:01 31° NW
SPOT 5 3.3 21:30:45 52° SW 21:31:36 59° W 21:36:53 10° NNW
ARIANE 5 R/B 3.8 21:33:19 31° WSW 21:33:45 32° W 21:37:39 10° NNW
Meteor 1-19 Rocket 3.9 21:35:59 75° S 21:36:27 89° E 21:41:53 10° N
Meteor 2-4 Rocket 3.9 21:39:42 53° E 21:39:42 53° E 21:44:55 10° NNE
SL-8 Rocket 3.9 21:34:27 10° N 21:40:49 83° E 21:41:47 66° SSE
Cosmos 1238 Rocket 3.3 21:35:41 10° N 21:41:08 85° WNW 21:41:08 85° WNW
ISS -0.4 21:43:08 10° NW 21:44:36 12° N 21:46:03 10° NNE
Gbstr 26 Del rocket 3.8 21:45:21 10° NW 21:52:44 80° SW 21:53:23 72° SSE
Cosmos 1867 4.1 21:56:30 39° WSW 21:58:16 56° NW 22:03:40 10° NNE
Lacrosse 5 3.4 22:02:09 26° ENE 22:02:09 26° ENE 22:04:27 10° NE
Cosmos 1943 Rocket 4.0 21:57:02 10° WSW 22:01:46 27° WNW 22:06:30 10° N
Cosmos 864 Rocket 4.3 21:59:15 10° N 22:05:24 81° W 22:05:51 75° SSW
Cosmos 1048 Rocket 4.3 22:01:22 10° NNW 22:06:10 61° NE 22:06:10 61° NE
Okean 1-7 4.3 22:08:56 36° NNE 22:08:56 36° NNE 22:11:35 10° NNE
Cosmos 1959 Rocket 4.4 22:01:46 10° N 22:07:56 75° W 22:08:24 71° SW
Cosmos 1656 Rocket 3.7 22:08:33 69° W 22:08:47 70° WNW 22:14:19 10° NNE
ATLAS CENTAUR R/B 3.2 22:11:28 27° N 22:11:28 27° N 22:13:36 10° NNE
SL-08 R/B 4.4 22:10:00 10° N 22:16:17 75° E 22:16:29 74° E
Cosmos 2369 Rocket 3.7 22:24:29 22° WSW 22:27:05 32° WNW 22:32:07 10° N
Terra 3.9 22:34:20 19° W 22:34:20 19° W 22:37:18 10° NW
Cosmos 44 Rocket 4.0 22:32:09 10° NNW 22:36:33 54° NNE 22:36:33 54° NNE
ATLAS 2AS CENTAUR R/B 4.4 22:33:43 10° WNW 22:38:05 18° WSW 22:38:33 18° WSW
Cosmos 494 Rocket 4.5 22:36:33 10° NNW 22:40:39 57° NNW 22:40:39 57° NNW
Cosmos 1821 Rocket 3.9 22:36:22 10° N 22:42:44 89° N 22:42:44 89° N
NOSS 2-1 (C) 4.5 22:54:47 10° NNW 22:59:58 69° NE 22:59:58 69° NE
ALOS 2 4.1 23:08:32 35° NNW 23:08:32 35° NNW 23:11:08 10° NNW
NOSS 2-1 (D) 4.4 23:01:37 10° NNW 23:06:37 76° NNE 23:06:37 76° NNE
Nimbus 7 Rocket 4.4 23:11:21 10° NNE 23:16:52 76° NNW 23:16:52 76° NNW
Cosmos 2227 Rocket 4.1 23:16:15 10° N 23:20:37 22° NE 23:22:33 19° E
ISS -0.4 23:21:03 10° NNW 23:22:35 12° N 23:22:52 12° NNE
Cosmos 2297 Rocket 3.6 23:17:52 10° N 23:22:47 29° ENE 23:23:52 27° ENE
COSMOS 2455 3.5 23:18:44 10° NNW 23:24:32 46° NE 23:25:11 44° ENE
Lacrosse 5 3.6 23:41:17 24° WNW 23:42:43 28° NNW 23:47:06 10° NNE
Cosmos 1605 Rocket 4.0 23:42:47 10° N 23:48:50 77° WNW 23:48:50 77° WNW
SeaSat 1 3.3 23:45:16 10° NNE 23:48:47 45° NE 23:48:47 45° NE
